Oelwein, IA

4:06 AM CDT on July 23, 2017 (GMT -0500)
Oelwein Municipal

Weather History for KOLZ - June, 2013

Change the Weather History Date:

Thursday, June 27, 2013

  Actual Average Record
Temperature  
Mean Temperature 75 °F -  
Max Temperature 84 °F 83 °F 94 °F (1977)
Min Temperature 66 °F 60 °F 44 °F (1992)
Cooling Degree Days 10    
Growing Degree Days 25 (Base 50)    
Moisture  
Dew Point 64 °F    
Average Humidity 71    
Maximum Humidity 94    
Minimum Humidity 39    
Precipitation  
Precipitation 0.00 in - - ()
Sea Level Pressure  
Sea Level Pressure 29.85 in    
Wind  
Wind Speed 10 mph (WNW)    
Max Wind Speed 28 mph    
Max Gust Speed 36 mph    
Visibility 10 miles    
Events      
Averages and records for this station are not official NWS values.
T = Trace of Precipitation, MM = Missing Value Source: NWS Daily Summary

Daily Weather History Graph

Daily Weather History Graph

Search for Another Location

Airport or City:

Trip Planner

Search our weather history database for the weather conditions in past years. The results will help you decide how hot, cold, wet, or windy it might be!

Date:

Astronomy

Jun. 27, 2013 Rise Set
Actual Time 5:31 AM CDT 8:49 PM CDT
Civil Twilight 4:56 AM CDT 9:24 PM CDT
Nautical Twilight 4:11 AM CDT 10:10 PM CDT
Astronomical Twilight 3:15 AM CDT 11:05 PM CDT
Moon 11:39 PM CDT (6/27) 10:40 AM CDT (6/27)
Length of Visible Light 16h 28m
Length of Day
15h 18m
Waning Gibbous, 76% of the Moon is Illuminated
Jun 27
Waning Gibbous
Jun 29
Last Quarter
Jul 8
New
Jul 15
First Quarter
Jul 22
Full

Hourly Weather History & Observations

Time (CDT) Temp. Heat Index Dew Point Humidity Pressure Visibility Wind Dir Wind Speed Gust Speed Precip Events Conditions
12:15 AM 71.6 °F - 66.2 °F 83% 29.84 in 10.0 mi NW 6.9 mph - N/A   Clear
12:35 AM 71.6 °F - 66.2 °F 83% 29.85 in 10.0 mi NW 8.1 mph - N/A   Clear
12:55 AM 69.8 °F - 66.2 °F 88% 29.85 in 10.0 mi NW 6.9 mph - N/A   Clear
1:15 AM 69.8 °F - 66.2 °F 88% 29.85 in 10.0 mi NW 6.9 mph - N/A   Clear
1:35 AM 69.8 °F - 66.2 °F 88% 29.85 in 10.0 mi NNW 4.6 mph - N/A   Clear
1:55 AM 69.8 °F - 66.2 °F 88% 29.84 in 10.0 mi NNW 4.6 mph - N/A   Clear
2:15 AM 68.0 °F - 66.2 °F 94% 29.85 in 10.0 mi NW 5.8 mph - N/A   Clear
2:35 AM 68.0 °F - 66.2 °F 94% 29.85 in 10.0 mi NW 4.6 mph - N/A   Clear
2:55 AM 68.0 °F - 66.2 °F 94% 29.85 in 10.0 mi NW 6.9 mph - N/A   Clear
3:15 AM 68.0 °F - 64.4 °F 88% 29.86 in - West 5.8 mph - N/A   Unknown
3:35 AM 66.2 °F - 64.4 °F 94% 29.85 in 10.0 mi West 4.6 mph - N/A   Clear
3:55 AM 66.2 °F - 64.4 °F 94% 29.86 in 10.0 mi West 6.9 mph - N/A   Clear
4:15 AM 66.2 °F - 64.4 °F 94% 29.86 in 10.0 mi West 5.8 mph - N/A   Clear
4:35 AM 66.2 °F - 64.4 °F 94% 29.87 in 10.0 mi West 8.1 mph - N/A   Clear
4:55 AM 66.2 °F - 64.4 °F 94% 29.87 in 10.0 mi West 6.9 mph - N/A   Clear
5:15 AM 66.2 °F - 64.4 °F 94% 29.86 in 10.0 mi West 8.1 mph - N/A   Clear
5:35 AM 66.2 °F - 64.4 °F 94% 29.87 in 10.0 mi WNW 6.9 mph - N/A   Clear
5:55 AM 66.2 °F - 64.4 °F 94% 29.87 in 10.0 mi WNW 6.9 mph - N/A   Clear
6:15 AM 66.2 °F - 64.4 °F 94% 29.87 in 10.0 mi WNW 4.6 mph - N/A   Clear
6:35 AM 68.0 °F - 64.4 °F 88% 29.87 in 10.0 mi WNW 5.8 mph - N/A   Clear
6:55 AM 68.0 °F - 66.2 °F 94% 29.88 in 10.0 mi West 6.9 mph - N/A   Clear
7:15 AM 69.8 °F - 66.2 °F 88% 29.87 in 10.0 mi West 6.9 mph - N/A   Clear
7:55 AM 73.4 °F - 68.0 °F 83% 29.89 in 10.0 mi West 6.9 mph - N/A   Clear
8:15 AM 73.4 °F - 68.0 °F 83% 29.89 in 10.0 mi West 9.2 mph - N/A   Clear
8:35 AM 75.2 °F - 68.0 °F 78% 29.89 in 10.0 mi WSW 5.8 mph - N/A   Scattered Clouds
8:55 AM 75.2 °F - 68.0 °F 78% 29.89 in 10.0 mi WSW 5.8 mph - N/A   Scattered Clouds
9:15 AM 77.0 °F - 68.0 °F 74% 29.88 in 10.0 mi SW 5.8 mph - N/A   Mostly Cloudy
9:35 AM 77.0 °F - 68.0 °F 74% 29.87 in 10.0 mi SW 5.8 mph - N/A   Scattered Clouds
9:55 AM 78.8 °F - 68.0 °F 69% 29.87 in 10.0 mi SW 5.8 mph - N/A   Partly Cloudy
10:35 AM 80.6 °F 83.9 °F 69.8 °F 70% 29.86 in 10.0 mi SW 10.4 mph - N/A   Clear
10:55 AM 82.4 °F 85.4 °F 68.0 °F 62% 29.85 in 10.0 mi WSW 16.1 mph - N/A   Clear
11:55 AM 80.6 °F 83.2 °F 68.0 °F 65% 29.86 in 10.0 mi West 18.4 mph - N/A   Clear
12:15 PM 80.6 °F 83.2 °F 68.0 °F 65% 29.87 in - West 20.7 mph - N/A   Clear
12:35 PM 82.4 °F 86.3 °F 69.8 °F 66% 29.87 in 10.0 mi West 16.1 mph - N/A   Clear
12:55 PM 82.4 °F 86.3 °F 69.8 °F 66% 29.86 in 10.0 mi West 17.3 mph 23.0 mph N/A   Clear
1:15 PM 84.2 °F 87.3 °F 68.0 °F 58% 29.87 in 10.0 mi WNW 21.9 mph 27.6 mph N/A   Clear
1:35 PM 84.2 °F 88.4 °F 69.8 °F 62% 29.87 in 10.0 mi WNW 20.7 mph - N/A   Clear
1:55 PM 84.2 °F 85.6 °F 64.4 °F 51% 29.86 in 10.0 mi WNW 19.6 mph 29.9 mph N/A   Clear
2:15 PM 84.2 °F 85.6 °F 64.4 °F 51% 29.86 in 10.0 mi WNW 25.3 mph 32.2 mph N/A   Clear
2:35 PM 84.2 °F 84.4 °F 60.8 °F 45% 29.86 in 10.0 mi WNW 27.6 mph 35.7 mph N/A   Clear
2:55 PM 84.2 °F 84.4 °F 60.8 °F 45% 29.86 in 10.0 mi WNW 25.3 mph 34.5 mph N/A   Clear
3:15 PM 84.2 °F 84.4 °F 60.8 °F 45% 29.86 in 10.0 mi WNW 24.2 mph 34.5 mph N/A   Clear
3:35 PM 84.2 °F 84.4 °F 60.8 °F 45% 29.86 in 10.0 mi WNW 20.7 mph 28.8 mph N/A   Clear
3:55 PM 82.4 °F 82.5 °F 59.0 °F 45% 29.85 in 10.0 mi NW 21.9 mph 31.1 mph N/A   Clear
4:15 PM 82.4 °F 82.5 °F 59.0 °F 45% 29.85 in 10.0 mi WNW 19.6 mph 27.6 mph N/A   Clear
4:35 PM 82.4 °F 82.9 °F 60.8 °F 48% 29.85 in 10.0 mi WNW 16.1 mph 24.2 mph N/A   Clear
4:55 PM 84.2 °F 84.4 °F 60.8 °F 45% 29.84 in 10.0 mi WNW 20.7 mph - N/A   Clear
5:15 PM 84.2 °F 84.4 °F 60.8 °F 45% 29.84 in 10.0 mi WNW 21.9 mph 33.4 mph N/A   Clear
5:35 PM 84.2 °F 83.8 °F 59.0 °F 42% 29.84 in 10.0 mi NW 21.9 mph 28.8 mph N/A   Clear
5:55 PM 84.2 °F 83.5 °F 57.2 °F 40% 29.84 in 10.0 mi NW 19.6 mph 29.9 mph N/A   Clear
6:15 PM 84.2 °F 83.5 °F 57.2 °F 40% 29.83 in 10.0 mi NW 23.0 mph 29.9 mph N/A   Clear
6:35 PM 82.4 °F 81.7 °F 55.4 °F 39% 29.83 in - NW 16.1 mph 25.3 mph N/A   Clear
6:55 PM 82.4 °F 82.0 °F 57.2 °F 42% 29.83 in 10.0 mi WNW 17.3 mph 25.3 mph N/A   Clear
7:15 PM 82.4 °F 82.0 °F 57.2 °F 42% 29.83 in 10.0 mi NW 15.0 mph 20.7 mph N/A   Clear
7:35 PM 80.6 °F 80.8 °F 57.2 °F 45% 29.83 in 10.0 mi NW 15.0 mph 21.9 mph N/A   Clear
7:55 PM 78.8 °F - 60.8 °F 54% 29.83 in 10.0 mi NW 10.4 mph - N/A   Clear
8:15 PM 77.0 °F - 60.8 °F 57% 29.83 in 10.0 mi WNW 9.2 mph - N/A   Clear
8:35 PM 77.0 °F - 62.6 °F 61% 29.83 in 10.0 mi NW 9.2 mph - N/A   Clear
8:55 PM 73.4 °F - 62.6 °F 69% 29.83 in 10.0 mi WNW 8.1 mph - N/A   Clear
9:15 PM 71.6 °F - 62.6 °F 73% 29.83 in 10.0 mi NW 6.9 mph 12.7 mph N/A   Clear
9:35 PM 71.6 °F - 62.6 °F 73% 29.83 in 10.0 mi NW 6.9 mph - N/A   Clear
9:55 PM 69.8 °F - 62.6 °F 78% 29.84 in 10.0 mi WNW 6.9 mph - N/A   Clear
10:15 PM 69.8 °F - 62.6 °F 78% 29.84 in 10.0 mi WNW 5.8 mph - N/A   Clear
10:35 PM 69.8 °F - 62.6 °F 78% 29.84 in 10.0 mi West 6.9 mph - N/A   Clear
10:55 PM 69.8 °F - 62.6 °F 78% 29.85 in 10.0 mi West 8.1 mph - N/A   Clear
11:15 PM 68.0 °F - 62.6 °F 83% 29.85 in 10.0 mi West 8.1 mph - N/A   Clear
11:35 PM 68.0 °F - 62.6 °F 83% 29.85 in 10.0 mi West 8.1 mph - N/A   Clear
11:55 PM 68.0 °F - 62.6 °F 83% 29.86 in 10.0 mi West 6.9 mph - N/A   Clear